User: anonymous   Login
Location: Valdosta
(30.8330°N, 83.2790°W)
Time: 17:03:41
(UTC-05:00)
Language:

Uribyol 2 - Orbit

View from above orbital plane
View from above orbital plane
View from above satellite
View from above satellite

Ground track
Ground track

The orbit data is extracted from the following two-line orbital elements,

1 22828U 93061F   18049.89310555 -.00000025  00000-0  82164-5 0  9993
2 22828  98.8337  22.6364 0008890 292.2712  67.7527 14.30663321241218
Epoch (UTC): 18 February 2018 21:26:04
Eccentricity: 0.0008890
inclination: 98.8337°
perigee height: 783 km
apogee height: 796 km
right ascension of ascending node: 22.6364°
argument of perigee: 292.2712°
revolutions per day: 14.30663321
mean anomaly at epoch: 67.7527°
orbit number at epoch: 24121

The dashed part of the orbit path shows where the satellite is in the earth's shadow,  

DLR